When you browse on this site, cookies collect data to enhance your experience and personalize the content and advertising you see.
Visit our Privacy Policy to learn more. By continuing to use the site, you agree to this use of cookies and data.
  • In Hungary
  • List of Countries
  • For 7 days
  • Water Temperature
  • Satellite Maps
  • Weather Map
  • News
  • Weather Widgets
  • user-avatar
    Login

    Hourly Weather Barcelos

    Today, 21 July, Sunday

    Time Temperature Precipitation Wind Pressure Humidity
    00:00 +17°C° 0 mm 2 mps 763 mmHg 89%
    01:00 +17°C° 0 mm 2 mps 763 mmHg 89%
    02:00 +17°C° 0 mm 2 mps 763 mmHg 90%
    03:00 +17°C° 0 mm 2 mps 763 mmHg 89%
    04:00 +17°C° 0 mm 2 mps 762 mmHg 88%
    05:00 +17°C° 0 mm 2 mps 762 mmHg 88%
    06:00 +20°C° 0 mm 2 mps 763 mmHg 77%
    07:00 +24°C° 0 mm 2 mps 763 mmHg 67%
    08:00 +26°C° 0 mm 2 mps 763 mmHg 57%
    09:00 +28°C° 0 mm 3 mps 763 mmHg 51%
    10:00 +30°C° 0 mm 3 mps 763 mmHg 46%
    11:00 +32°C° 0 mm 4 mps 762 mmHg 41%
    12:00 +32°C° 0 mm 5 mps 762 mmHg 42%
    13:00 +32°C° 0 mm 5 mps 762 mmHg 42%
    14:00 +32°C° 0 mm 6 mps 762 mmHg 43%
    15:00 +30°C° 0 mm 5 mps 762 mmHg 46%
    16:00 +29°C° 0 mm 5 mps 761 mmHg 49%
    17:00 +28°C° 0 mm 5 mps 761 mmHg 52%
    18:00 +26°C° 0 mm 4 mps 762 mmHg 60%
    19:00 +24°C° 0 mm 3 mps 762 mmHg 69%
    20:00 +21°C° 0 mm 3 mps 763 mmHg 77%
    21:00 +21°C° 0 mm 2 mps 762 mmHg 78%
    22:00 +20°C° 0 mm 2 mps 762 mmHg 78%
    23:00 +21°C° 0 mm 1 mps 762 mmHg 79%

    Tomorrow, 22 July, Monday

    Time Temperature Precipitation Wind Pressure Humidity
    00:00 +21°C° 0 mm 1 mps 762 mmHg 80%
    01:00 +21°C° 0 mm 1 mps 762 mmHg 81%
    02:00 +20°C° 0 mm 1 mps 761 mmHg 82%
    03:00 +20°C° 0 mm 1 mps 761 mmHg 82%
    04:00 +20°C° 0 mm 1 mps 761 mmHg 81%
    05:00 +20°C° 0 mm 1 mps 761 mmHg 81%
    06:00 +23°C° 0 mm 1 mps 761 mmHg 72%
    07:00 +26°C° 0 mm 1 mps 761 mmHg 63%
    08:00 +29°C° 0 mm 1 mps 761 mmHg 54%
    09:00 +30°C° 0 mm 1 mps 761 mmHg 51%
    10:00 +30°C° 0 mm 2 mps 761 mmHg 49%
    11:00 +31°C° 0 mm 2 mps 761 mmHg 46%
    12:00 +32°C° 0 mm 2 mps 760 mmHg 45%
    13:00 +32°C° 0 mm 2 mps 760 mmHg 44%
    14:00 +33°C° 0 mm 3 mps 760 mmHg 43%
    15:00 +31°C° 0 mm 2 mps 759 mmHg 47%
    16:00 +29°C° 0 mm 2 mps 759 mmHg 51%
    17:00 +28°C° 0 mm 2 mps 759 mmHg 56%
    18:00 +26°C° 0 mm 2 mps 760 mmHg 66%
    19:00 +23°C° 0 mm 2 mps 760 mmHg 77%
    20:00 +21°C° 0 mm 1 mps 761 mmHg 88%
    21:00 +20°C° 0 mm 1 mps 760 mmHg 88%
    22:00 +20°C° 0 mm 1 mps 760 mmHg 89%
    23:00 +20°C° 0 mm 1 mps 760 mmHg 89%

    Day after tomorrow, 23 July, Tuesday

    Time Temperature Precipitation Wind Pressure Humidity
    00:00 +20°C° 0 mm 1 mps 760 mmHg 90%
    01:00 +19°C° 0 mm 1 mps 759 mmHg 91%
    02:00 +19°C° 0 mm 1 mps 759 mmHg 92%
    03:00 +19°C° 0 mm 1 mps 759 mmHg 92%
    04:00 +17°C° 0 mm 0 mps 759 mmHg 93%
    05:00 +17°C° 0 mm 0 mps 759 mmHg 93%
    06:00 +21°C° 0 mm 1 mps 759 mmHg 87%
    07:00 +22°C° 0 mm 1 mps 760 mmHg 81%
    08:00 +24°C° 0 mm 2 mps 760 mmHg 75%
    09:00 +25°C° 0 mm 2 mps 760 mmHg 68%
    10:00 +27°C° 0 mm 3 mps 760 mmHg 61%
    11:00 +29°C° 0 mm 3 mps 760 mmHg 54%
    12:00 +29°C° 0 mm 3 mps 760 mmHg 52%
    13:00 +29°C° 0 mm 4 mps 759 mmHg 50%
    14:00 +29°C° 0 mm 4 mps 759 mmHg 49%
    15:00 +28°C° 0 mm 4 mps 759 mmHg 51%
    16:00 +27°C° 0 mm 4 mps 759 mmHg 53%
    17:00 +27°C° 0 mm 4 mps 759 mmHg 56%
    18:00 +24°C° 0 mm 3 mps 759 mmHg 64%
    19:00 +21°C° 0 mm 3 mps 760 mmHg 73%
    20:00 +19°C° 0 mm 2 mps 760 mmHg 81%
    21:00 +18°C° 0 mm 2 mps 760 mmHg 83%
    22:00 +18°C° 0 mm 2 mps 760 mmHg 85%
    23:00 +18°C° 0 mm 1 mps 760 mmHg 86%

    24 July, Wednesday

    Time Temperature Precipitation Wind Pressure Humidity
    00:00 +18°C° 0 mm 1 mps 759 mmHg 87%
    01:00 +18°C° 0 mm 1 mps 759 mmHg 87%
    02:00 +18°C° 0 mm 1 mps 759 mmHg 88%
    03:00 +18°C° 0 mm 1 mps 758 mmHg 87%
    04:00 +18°C° 0 mm 1 mps 758 mmHg 85%
    05:00 +16°C° 0 mm 0 mps 758 mmHg 84%
    06:00 +21°C° 0 mm 1 mps 758 mmHg 74%
    07:00 +23°C° 0 mm 1 mps 758 mmHg 64%
    08:00 +26°C° 0 mm 1 mps 759 mmHg 53%
    09:00 +27°C° 0 mm 1 mps 758 mmHg 51%
    10:00 +28°C° 0 mm 2 mps 758 mmHg 49%
    11:00 +29°C° 0 mm 3 mps 758 mmHg 46%
    12:00 +29°C° 0 mm 3 mps 758 mmHg 51%
    13:00 +28°C° 0 mm 3 mps 758 mmHg 56%
    14:00 +28°C° 0 mm 3 mps 758 mmHg 60%
    15:00 +27°C° 0 mm 3 mps 758 mmHg 65%
    16:00 +26°C° 0 mm 3 mps 758 mmHg 70%
    17:00 +25°C° 0 mm 2 mps 758 mmHg 75%
    18:00 +24°C° 0 mm 2 mps 758 mmHg 81%
    19:00 +22°C° 0 mm 1 mps 758 mmHg 88%
    20:00 +21°C° 0 mm 1 mps 759 mmHg 94%
    21:00 +21°C° 0 mm 1 mps 759 mmHg 94%
    22:00 +21°C° 0 mm 1 mps 758 mmHg 94%
    23:00 +19°C° 0 mm 0 mps 758 mmHg 94%

    25 July, Thursday

    Time Temperature Precipitation Wind Pressure Humidity
    00:00 +21°C° 0 mm 1 mps 758 mmHg 94%
    01:00 +21°C° 0 mm 1 mps 758 mmHg 94%
    02:00 +21°C° 0 mm 1 mps 758 mmHg 94%
    03:00 +19°C° 0 mm 0 mps 758 mmHg 94%
    04:00 +19°C° 0 mm 0 mps 758 mmHg 95%
    05:00 +18°C° 0 mm 0 mps 759 mmHg 95%
    06:00 +22°C° 0 mm 1 mps 759 mmHg 88%
    07:00 +23°C° 0 mm 1 mps 759 mmHg 82%
    08:00 +24°C° 0 mm 2 mps 759 mmHg 75%
    09:00 +24°C° 0 mm 2 mps 760 mmHg 74%
    10:00 +25°C° 0 mm 3 mps 760 mmHg 73%
    11:00 +25°C° 0 mm 3 mps 760 mmHg 72%
    12:00 +26°C° 0 mm 4 mps 760 mmHg 66%
    13:00 +26°C° 0 mm 4 mps 760 mmHg 61%
    14:00 +27°C° 0 mm 5 mps 760 mmHg 56%
    15:00 +26°C° 0 mm 5 mps 760 mmHg 57%
    16:00 +25°C° 0 mm 5 mps 760 mmHg 58%
    17:00 +23°C° 0 mm 5 mps 760 mmHg 59%
    18:00 +21°C° 0 mm 4 mps 761 mmHg 68%
    19:00 +19°C° 0 mm 4 mps 762 mmHg 76%
    20:00 +17°C° 0 mm 3 mps 762 mmHg 85%
    21:00 +16°C° 0 mm 3 mps 762 mmHg 87%
    22:00 +16°C° 0 mm 3 mps 763 mmHg 89%
    23:00 +14°C° 0 mm 3 mps 763 mmHg 92%

    26 July, Friday

    Time Temperature Precipitation Wind Pressure Humidity
    00:00 +14°C° 0 mm 3 mps 763 mmHg 91%
    01:00 +14°C° 0 mm 3 mps 762 mmHg 91%
    02:00 +15°C° 0 mm 2 mps 762 mmHg 91%
    03:00 +14°C° 0 mm 2 mps 763 mmHg 90%
    04:00 +14°C° 0 mm 2 mps 763 mmHg 89%
    05:00 +14°C° 0 mm 2 mps 763 mmHg 88%
    06:00 +17°C° 0 mm 3 mps 763 mmHg 76%
    07:00 +20°C° 0 mm 3 mps 763 mmHg 63%
    08:00 +22°C° 0 mm 3 mps 763 mmHg 51%
    09:00 +25°C° 0 mm 4 mps 763 mmHg 45%
    10:00 +27°C° 0 mm 4 mps 763 mmHg 39%
    11:00 +29°C° 0 mm 5 mps 763 mmHg 34%
    12:00 +29°C° 0 mm 6 mps 762 mmHg 35%
    13:00 +29°C° 0 mm 6 mps 762 mmHg 37%
    14:00 +29°C° 0 mm 7 mps 762 mmHg 39%
    15:00 +28°C° 0 mm 7 mps 762 mmHg 43%
    16:00 +27°C° 0 mm 7 mps 762 mmHg 46%
    17:00 +24°C° 0 mm 6 mps 762 mmHg 50%
    18:00 +23°C° 0 mm 6 mps 762 mmHg 58%
    19:00 +21°C° 0 mm 5 mps 763 mmHg 66%
    20:00 +19°C° 0 mm 4 mps 763 mmHg 73%
    21:00 +18°C° 0 mm 4 mps 763 mmHg 75%
    22:00 +18°C° 0 mm 3 mps 763 mmHg 76%
    23:00 +17°C° 0 mm 3 mps 763 mmHg 78%
    Show more